Regional Weather Roundup
Issued by NWS

Home | Current Version | Previous Version | Graphics & Text | Print | Product List | Glossary On
Versions: 1 2 3 4 5 6 7 8 9 10 11 12 13 14 15 16 17 18 19 20 21 22 23 24 25 26 27 28 29 30 31 32 33 34 35 36 37 38 39 40 41 42 43 44 45 46 47 48 49 50
000
ASUS44 KMEG 222210
RWRTN
TENNESSEE HOURLY STATE WEATHER ROUNDUP
NATIONAL WEATHER SERVICE MEMPHIS TN
500 PM CDT WED OCT 22 2014

TNZ002-004-019-021-049-052-054-088>092-222300-
WEST TENNESSEE

CITY           SKY/WX    TMP DP  RH WIND       PRES   REMARKS
MEMPHIS INTL   SUNNY     67  40  37 E8        30.16F
NWS MEMPHIS      N/A     66 N/A N/A MISG        N/A
JACKSON        SUNNY     66  41  40 NE8       30.18F
DYERSBURG      SUNNY     64  37  36 NE8       30.20F
UNION CITY     SUNNY     63  41  45 NE7       30.19F
PARIS          SUNNY     61  41  48 N7        30.21S
HUNTINGDON     SUNNY     61  40  45 NE8       30.20S
LEXINGTON      SUNNY     63  41  45 N7        30.18S
SAVANNAH       SUNNY     64  43  45 N8        30.17S
$$

TNZ008-025-027-028-033-062-065-066-222300-
NORTH MIDDLE TENNESSEE

CITY           SKY/WX    TMP DP  RH WIND       PRES   REMARKS
NASHVILLE      SUNNY     62  40  44 NE10      30.20S
CLARKSVILLE    SUNNY     62  40  44 NE6       30.21R
SMYRNA         SUNNY     63  41  44 N12       30.20S
COOKEVILLE     SUNNY     59  43  55 NE10      30.18S
CROSSVILLE     CLEAR     58  38  47 NE10      30.18S
$$

TNZ061-075-076-078-094-096-097-222300-
SOUTH MIDDLE TENNESSEE

CITY           SKY/WX    TMP DP  RH WIND       PRES   REMARKS
FAYETTEVILLE   SUNNY     61  39  44 N7        30.15S
TULLAHOMA      SUNNY     61  39  44 NE8       30.17S
WINCHESTER     SUNNY     61  41  48 N10       30.16S
MCMINNVILLE    SUNNY     61  43  51 N8        30.18S
COLUMBIA       SUNNY     63  41  45 NE8       30.16S
SHELBYVILLE    SUNNY     61  43  51 N8        30.18S
$$

TNZ017-018-042-046-047-222300-
NORTHEAST TENNESSEE

CITY           SKY/WX    TMP DP  RH WIND       PRES   REMARKS
TRI CITIES     CLOUDY    49  41  74 N5        30.20S
ELIZABETHTON   CLOUDY    46  39  76 VRB7      30.19S
$$

TNZ012-013-036-069-073-074-222300-
CENTRAL EAST TENNESSEE

CITY           SKY/WX    TMP DP  RH WIND       PRES   REMARKS
KNOXVILLE      PTCLDY    58  40  51 N12       30.16S
OAK RIDGE      CLEAR     58  41  53 VRB5      30.19S
GATLINBURG     CLOUDY    55  39  54 NE7       30.17S
MORRISTOWN     CLEAR     52  39  62 NE8       30.21R
$$

TNZ083-085-099-222300-
SOUTHEAST TENNESSEE

CITY           SKY/WX    TMP DP  RH WIND       PRES   REMARKS
CHATTANOOGA    SUNNY     63  42  46 NE12      30.14S
$$

SKY/WX REPORTED AS FAIR MEANS FEW OR NO CLOUDS BELOW
12 THOUSAND FEET.




USA.gov is the U.S. government's official web portal to all federal, state and local government web resources and services.